Content
SEND FEEDBACK

Daily
Averages
Monthly
Summary
Switzerland

GENEVA, SWITZERLAND


Home > Europe > Switzerland
Elevation: 1364 feet     Latitude: 46 15N     Longitude: 006 08E

WEATHER
 
SELECT A DAY
Number of Records: 300,787;   Date Range: 7/1/96 - 4/17/14
 
SHARE

PRINT THIS DATA

[ ← Previous Day ]
WEATHER ALMANAC - DECEMBER 31, 2013
[ Next Day → ]
[ °C ]   °F
Weather ElementAverageHighLow
Temperature31.2 °F41 °F (2:20 pm)26.6 °F (3:20 am)
Dewpoint28.6 °F32 °F (10:50 am)24.8 °F (3:20 am)
Humidity89.1 %100 % (6:20 am)63 % (3:00 pm)
Barometer30.14 in30.33 in (1:00 am)30.04 in (2:50 pm)
Wind Speed1 mph4.6 mph (11:00 am)
Weather ElementAverage
Visibility4.9 mi
Wind DirectionE (93.4 °)

Weather ElementTotal
Precipitation---
Heating Degree Days31.2 (Base 65)
Averaged from 70 records on December 31, 2013
WEATHER CONDITIONS BREAKOUT
WIND DIRECTION BREAKOUT
WEATHER BY HOUR - DECEMBER 31, 2013
[ °C ]   °F
Local TimeTemperatureDewpointHumidityBarometerVisibilityWind DirectionWind SpeedGust SpeedPrecipitationEventsConditions
12:20 AM30.2 °F28.4 °F93 %30.24 in5.6 miCalm
12:50 AM28.4 °F26.6 °F93 %30.24 in5.0 miCalm
1:00 AM29.0 °F28.0 °F97 %30.33 in5.0 miENE (60°)1.2 mphMist
1:20 AM28.4 °F26.6 °F93 %30.24 in3.1 miCalmMist
1:50 AM28.4 °F26.6 °F93 %30.24 in2.5 miCalmMist
2:00 AM28.0 °F27.0 °F94 %30.32 inSE (130°)1.2 mph
2:50 AM28.4 °F26.6 °F93 %30.24 in3.7 miCalmMist
3:00 AM28.0 °F26.0 °F91 %30.32 inSSW (210°)1.2 mph
3:20 AM26.6 °F24.8 °F93 %30.24 in5.6 miWest (260°)1.2 mph
3:50 AM28.4 °F26.6 °F93 %30.21 in5.6 miCalm
4:00 AM27.0 °F26.0 °F93 %30.31 in7.0 miSouth (190°)1.2 mphMist
4:20 AM26.6 °F24.8 °F93 %30.21 in6.2 miCalmMostly Cloudy
4:50 AM28.4 °F26.6 °F93 %30.21 in6.2 miCalmScattered Clouds
5:00 AM27.0 °F26.0 °F93 %30.29 inNNE (20°)1.2 mph
5:20 AM26.6 °F24.8 °F93 %30.18 in6.2 miWNW (290°)1.2 mphScattered Clouds
5:50 AM26.6 °F24.8 °F93 %30.18 in6.2 miCalmPartly Cloudy
6:00 AM27.0 °F25.0 °F89 %30.27 inWSW (250°)1.2 mph
6:20 AM26.6 °F26.6 °F100 %30.18 inCalmFogFog
6:50 AM26.6 °F26.6 °F100 %30.18 in3.1 miCalmFogFog
7:00 AM27.0 °F25.0 °F91 %30.26 in4.0 miWNW (290°)2.3 mphFogPatches of Fog
7:20 AM26.6 °F26.6 °F100 %30.18 in3.1 miCalmFogFog
7:50 AM26.6 °F26.6 °F100 %30.15 in3.1 miCalmFogFog
8:00 AM28.0 °F25.0 °F83 %30.25 inWNW (300°)2.3 mph
8:20 AM26.6 °F26.6 °F100 %30.15 in3.1 miCalmFogFog
8:50 AM26.6 °F26.6 °F100 %30.15 in1.9 miSW (230°)2.3 mphPartly Cloudy
9:00 AM27.0 °F25.0 °F88 %30.25 inWest (270°)3.5 mph
9:20 AM26.6 °F26.6 °F100 %30.15 in0.9 miCalmMist
9:50 AM28.4 °F28.4 °F100 %30.18 in0.9 miCalmPartly Cloudy
10:00 AM28.0 °F27.0 °F94 %30.25 in1.0 miSSW (210°)1.2 mphFogPatches of Fog
10:20 AM30.2 °F30.2 °F100 %30.15 in1.2 miCalmPartly Cloudy
10:50 AM32.0 °F32.0 °F100 %30.15 in1.6 miCalmPartly Cloudy
11:00 AM32.0 °F29.0 °F85 %30.24 inSW (230°)4.6 mph
11:20 AM33.8 °F32.0 °F93 %30.15 in0.9 miSW (230°)1.2 mphPartly Cloudy
11:50 AM33.8 °F32.0 °F93 %30.12 in0.6 miSW (230°)1.2 mphFogLight Freezing Fog
12:00 PM34.0 °F31.0 °F84 %30.20 inSW (230°)3.5 mph
12:20 PM33.8 °F32.0 °F93 %30.12 in1.1 miCalmPartly Cloudy
12:50 PM35.6 °F32.0 °F87 %30.09 in3.1 miCalmScattered Clouds
1:00 PM36.0 °F31.0 °F73 %30.16 in3.0 miSE (140°)1.2 mphMist
1:20 PM39.2 °F32.0 °F75 %30.09 in5.6 miCalmScattered Clouds
1:50 PM39.2 °F32.0 °F75 %30.06 in6.2 miCalmScattered Clouds
2:00 PM37.0 °F30.0 °F68 %30.13 inSE (130°)2.3 mph
2:20 PM41.0 °F30.2 °F65 %30.06 in6.2 miCalmScattered Clouds
2:50 PM39.2 °F30.2 °F70 %30.04 in6.2 miCalmMostly Cloudy
3:00 PM38.0 °F30.0 °F63 %30.10 inEast (90°)4.6 mph
3:20 PM37.4 °F30.2 °F75 %30.04 in6.2 miEast (80°)1.2 mphMostly Cloudy
3:50 PM39.2 °F30.2 °F70 %30.04 in6.2 miVariable1.2 mphMostly Cloudy
4:00 PM38.0 °F30.0 °F64 %30.09 in11.0 miENE (60°)3.5 mphScattered Clouds
4:20 PM39.2 °F30.2 °F70 %30.04 in6.2 miCalmMostly Cloudy
4:50 PM37.4 °F32.0 °F81 %30.04 inCalmClear
5:00 PM36.0 °F30.0 °F70 %30.09 inNorth (350°)1.2 mph
5:20 PM33.8 °F30.2 °F87 %30.04 inCalmClear
5:50 PM33.8 °F30.2 °F87 %30.04 inCalmClear
6:00 PM32.0 °F29.0 °F85 %30.10 inNW (320°)2.3 mph
6:20 PM32.0 °F30.2 °F93 %30.04 inCalmClear
6:50 PM32.0 °F30.2 °F93 %30.04 in6.2 miCalmScattered Clouds
7:00 PM31.0 °F28.0 °F86 %30.11 in16.0 miSouth (180°)1.2 mphScattered Clouds
7:20 PM30.2 °F28.4 °F93 %30.04 in6.2 miCalmScattered Clouds
7:50 PM30.2 °F28.4 °F93 %30.04 in6.2 miVariable1.2 mphScattered Clouds
8:00 PM30.0 °F28.0 °F87 %30.12 inWNW (290°)3.5 mph
8:20 PM28.4 °F28.4 °F100 %30.04 in6.2 miCalmScattered Clouds
8:50 PM30.2 °F28.4 °F93 %30.04 inCalmClear
9:00 PM31.0 °F29.0 °F88 %30.12 inWNW (290°)1.2 mph
9:20 PM30.2 °F30.2 °F100 %30.04 inVariable1.2 mphClear
9:50 PM30.2 °F30.2 °F100 %30.04 in6.2 miCalmMostly Cloudy
10:00 PM30.0 °F28.0 °F89 %30.12 in11.0 miWest (260°)1.2 mphMostly Cloudy
10:20 PM30.2 °F30.2 °F100 %30.04 in6.2 miCalmMostly Cloudy
10:50 PM32.0 °F30.2 °F93 %30.04 in6.2 miVariable1.2 mphMostly Cloudy
11:00 PM32.0 °F30.0 °F88 %30.12 inWSW (240°)1.2 mph
11:20 PM32.0 °F32.0 °F100 %30.04 in6.2 miSW (220°)4.6 mphRainLight Rain Showers
11:50 PM33.8 °F32.0 °F93 %30.06 in6.2 miWest (260°)3.5 mphRainLight Rain Showers
Hourly data recorded from LSGG, located 1.93 miles away from Geneva, Switzerland







STORIES FROM OUR PARTNERS